Home > Weather > Kagoshima > Past weeks

Flag for Japan Past Weather in Kagoshima, Japan — Yesterday and Last 2 Weeks

Now
70 °F

Mild.


Feels Like: 70 °F
Forecast: 71 / 74 °F
Wind: 6 mph from Northeast

Location: Kagoshima

Current Time: May 29, 2016 at 1:07:57 AM

Latest Report: May 29, 2016 at 12:00 AM


Visibility: N/A

Pressure: 29.72 "Hg

Humidity: 99%

Dew Point: 69 °F

Location of KagoshimaLocation

Past Weather in Kagoshima — Graph

°F

Kagoshima Temperature Yesterday

Maximum temperature yesterday: 71 °F (at 10:00 PM)
Minimum temperature yesterday: 67 °F (at 8:00 AM)
Average temperature yesterday: 69 °F

High & Low Weather Summary for the Past Weeks

 TemperatureHumidityPressure
High83 °F (May 26, 5:00 PM)99% (May 25, 12:00 AM)30.18 "Hg (May 25, 12:00 AM)
Low55 °F (May 17, 4:00 AM)35% (May 17, 2:00 PM)29.71 "Hg (May 28, 7:00 PM)
Average73 °F71%29.93 "Hg
* Reported May 14 12:00 AM — May 29 12:00 AM, Kagoshima, Weather by CustomWeather, © 2016

Note: Actual official high and low records may vary slightly from our data, if they occured in-between our weather recording intervals... More about our weather records

Advertising

Kagoshima Weather History for the Previous 24 Hours

Scroll right to see more
 ConditionsComfort  
Time TempWeatherWind HumidityBarometerVisibility
12:00 AM
Sun, May 29
70 °FMild.6 mph99%29.72 "HgN/A
10:00 PM
Sat, May 28
71 °FMild.2 mph97%29.72 "HgN/A
9:00 PM71 °FFog.3 mph97%29.73 "Hg5 mi
8:00 PM70 °FMild.No wind98%29.72 "HgN/A
7:00 PM70 °FMild.1 mph98%29.71 "HgN/A
6:00 PM70 °FLight rain. Overcast.2 mph98%29.72 "Hg3 mi
3:00 PM70 °FLight rain. Overcast.2 mph96%29.72 "Hg5 mi
2:00 PM69 °FMild.1 mph97%29.74 "HgN/A
1:00 PM69 °FMild.2 mph98%29.75 "HgN/A
12:00 PM69 °FOvercast.3 mph97%29.76 "Hg4 mi
11:00 AM69 °FMild.2 mph99%29.78 "HgN/A
10:00 AM68 °FMild.1 mph98%29.78 "HgN/A
9:00 AM67 °FLight rain. Overcast.3 mph97%29.78 "Hg2 mi
8:00 AM67 °FMild.6 mph97%29.79 "HgN/A
7:00 AM68 °FMild.6 mph93%29.78 "HgN/A
6:00 AM68 °FLight rain. Overcast.5 mph93%29.78 "Hg3 mi
5:00 AM69 °FMild.6 mph91%29.79 "HgN/A
4:00 AM69 °FMild.7 mph92%29.80 "HgN/A
3:00 AM69 °FLight rain. Overcast.3 mph94%29.80 "Hg4 mi
2:00 AM69 °FMild.3 mph93%29.81 "HgN/A
1:00 AM69 °FMild.2 mph93%29.82 "HgN/A
Weather by CustomWeather, © 2016

See weather overviewHow to use our weather pages